Regional Weather Roundup
Issued by NWS

Home | Current Version | Previous Version | Graphics & Text | Print | Product List | Glossary Off
Versions: 1 2 3 4 5 6 7 8 9 10 11 12 13 14 15 16 17 18 19 20 21 22 23 24 25 26 27 28 29 30 31 32 33 34 35 36 37 38 39 40 41 42 43 44 45 46 47 48 49 50

000
ASUS43 KDMX 281408
RWRIA

WEATHER ROUNDUP FOR IOWA
NATIONAL WEATHER SERVICE DES MOINES IA
900 AM CDT THU APR 28 2016

NOTE: "FAIR" INDICATES FEW OR NO CLOUDS BELOW 12,000 FEET WITH NO
SIGNIFICANT WEATHER AND/OR OBSTRUCTIONS TO VISIBILITY.

* - THESE STATIONS ARE NOT NWS STATIONS...THUS NOT UNDER NWS
QUALITY CONTROL.  THEY ALSO DO NOT REPORT WEATHER SUCH
AS PRECIPITATION OR FOG.

IAZ001>003-012>014-020>022-031>034-043>046-281500-
   NORTHWEST IOWA

CITY           SKY/WX    TMP DP  RH WIND       PRES   REMARKS
CARROLL *      PTSUNNY   48  46  93 W5        29.78R FOG
CHEROKEE *     CLOUDY    41  41 100 N8G17     29.84R
DENISON *      CLOUDY    45  45 100 N8        29.79R FOG
LE MARS *      CLOUDY    41  39  93 N12       29.87R FOG
ORANGE CITY *  RAIN      39  37  93 NE8       29.86R WCI  34
SHELDON *      CLOUDY    39  37  93 NE13G18   29.85R WCI  32
SIOUX CITY     CLOUDY    44  41  89 N13       29.86R
SPENCER        LGT RAIN  39  36  89 NE16      29.84R WCI  30
STORM LAKE *   CLOUDY    41  41 100 NE15      29.82R
$$

IAZ055>058-069>071-079>083-090>094-281500-
   SOUTHWEST IOWA

CITY           SKY/WX    TMP DP  RH WIND       PRES   REMARKS
ATLANTIC *     CLOUDY    48  46  93 W9        29.80R
AUDUBON *      PTSUNNY   48  45  87 W6        29.80R
CLARINDA *       N/A    N/A N/A N/A MISG        N/A
COUNCIL BLFS * CLOUDY    45  45 100 NW14      29.83R
CRESTON *      CLOUDY    48  45  87 W8        29.81R
HARLAN  *      CLOUDY    46  45  93 NW16      29.84R
LAMONI         CLOUDY    47  43  86 W14       29.80R
RED OAK *      CLOUDY    48  46  93 NW10G16   29.82R
SHENANDOAH *   CLOUDY    48  48 100 W14       29.84R
$$

IAZ047>049-059>061-072>074-084-281500-
   CENTRAL IOWA

CITY           SKY/WX    TMP DP  RH WIND       PRES   REMARKS
AMES           LGT RAIN  48  45  89 NE5       29.79R
ANKENY *       PTSUNNY   48  46  93 CALM      29.79R
BOONE *        PTSUNNY   46  46 100 SE3       29.78R FOG
CHARITON *     PTSUNNY   50  46  87 W8        29.79R
DES MOINES     CLOUDY    50  44  80 CALM      29.79R
GRINNELL*      DRIZZLE   46  46 100 NW6       29.79R
KNOXVILLE *    CLOUDY    48  45  87 W9        29.78R
MARSHALLTOWN   LGT RAIN  47  46  97 E13       29.78R FOG
NEWTON *       CLOUDY    48  48 100 W5        29.79R
PELLA *        CLOUDY    50  45  81 W6        29.80R
$$

IAZ004>006-015-016-023>025-035-036-281500-
   NORTH CENTRAL IOWA

CITY           SKY/WX    TMP DP  RH WIND       PRES   REMARKS
ALGONA *       MOSUNNY   41  39  93 NE10      29.83R FOG
CLARION *      LGT RAIN  43  43 100 E20       29.81R
ESTHERVILLE    LGT RAIN  38  37  97 NE14      29.85R FOG     WCI  30
FORT DODGE *   CLOUDY    45  39  81 E14       29.80R
MASON CITY     CLOUDY    41  39  93 E16       29.84R
FOREST CITY *  CLOUDY    41  37  87 E8G18     29.82S
WEBSTER CITY * PTSUNNY   45  45 100 E15       29.78R FOG
IOWA FALLS *   RAIN      45  43  93 NE7       29.81R
$$

IAZ007>011-017>019-026>030-037>042-050>054-066-281500-
   NORTHEAST IOWA

CITY           SKY/WX    TMP DP  RH WIND       PRES   REMARKS
CEDAR RAPIDS   CLOUDY    48  48 100 E12       29.79R FOG
CHARLES CITY * CLOUDY    43  41  93 E15G21    29.84R
CLINTON *      CLOUDY    47  45  93 E15       29.83R FOG
DECORAH *      CLOUDY    41  37  87 E12G18    29.85S
DUBUQUE        CLOUDY    44  43  96 E10       29.84R FOG
MONTICELLO *   CLOUDY    46  45  93 E7G15     29.81S FOG
OELWEIN *      CLOUDY    43  43 100 E13G20    29.83R
WATERLOO       CLOUDY    45  42  89 E16       29.81R
$$

IAZ064-065-067-068-078-281500-
   EAST CENTRAL IOWA

CITY           SKY/WX    TMP DP  RH WIND       PRES   REMARKS
DAVENPORT      CLOUDY    47  45  93 E14       29.82R FOG
IOWA CITY      CLOUDY    50  48  93 E5        29.80S FOG
MT. PLEASANT * CLOUDY    54  52  94 SW8       29.80R
MUSCATINE *    CLOUDY    54  50  87 SE7       29.80R FOG
QUAD CITIES    CLOUDY    50  47  89 E13       29.80S FOG
$$

IAZ062-063-075>077-085>089-095>099-281500-
   SOUTHEAST IOWA

CITY           SKY/WX    TMP DP  RH WIND       PRES   REMARKS
BURLINGTON     CLOUDY    52  52 100 SW6       29.80R
FAIRFIELD *    CLOUDY    52  46  82 W9        29.79R
FORT MADISON * PTSUNNY   54  50  87 SW6       29.81R
KEOKUK *       PTSUNNY   54  48  82 SW12      29.80R
OSKALOOSA *    CLOUDY    48  45  87 W8        29.80R
OTTUMWA        CLOUDY    50  46  86 SW9       29.79R
WASHINGTON *   CLOUDY    50  50 100 SW5       29.80R
$$

ABBREVIATIONS USED IN REMARKS
   TC - TEMPERATURES IN CELSIUS
  WCI - WIND CHILL INDEX
   HX - HEAT INDEX
  VSB - VISIBILITY
$$




USA.gov is the U.S. government's official web portal to all federal, state and local government web resources and services.